Kezdőlap
METAR-TAF:

METAR-TAF

Repülőterek :

Ankeny Regional Airport

Ankeny, Iowa, Amerikai Egyesült Államok

földrajzi szélesség: 41-41-24N, földrajzi hosszúság: 093-33-57W, magasság: 275 m

Jelenlegi meteorológiai megfigyelések

A jelentés 30 perccel ezelõtt készült, 16:55 UTC
Déli szél 8 kt
Hőmérséklet 6°C
Páratartalom 56%
Légköri nyomás 1022 hPa

METAR: KIKV 081655Z AUTO 19008KT 06/M02 A3018 RMK AO2 PWINO

Idő: 11:25 (17:25 UTC)


TAF: hiányzik

Meteorológiai megfigyelések és előrejelzések több, mint 4000 repülőtéren (METAR és TAF jelentéseket).

A térképen piros és sárga pontok jelzik az elérhető meteorológiai állomásokat.

Mozgassa az egeret a pont fölött, hogy megjelenjen az állomás neve.

Azután kattintson az időjárási megfigyelések és előrejelzések megtekintéséhez.

A térkép megváltoztatása: kattintson a fekete keresztel jelölt zöld gombra ráközelítéshez, a vonallal jelölt zöld gombra távolításhoz, vagy a zöld nyilakra a szomszédos térképek eléréséhez.


METAR-TAF: